Regional Weather Roundup
Issued by NWS

Home | Current Version | Previous Version | Graphics & Text | Print | Product List | Glossary Off
Versions: 1 2 3 4 5 6 7 8 9 10 11 12 13 14 15 16 17 18 19 20 21 22 23 24 25 26 27 28 29 30 31 32 33 34 35 36 37 38 39 40 41 42 43 44 45 46 47 48 49 50

000
ASUS43 KMKX 172124
RWRWI

WISCONSIN REGIONAL WEATHER ROUNDUP
NATIONAL WEATHER SERVICE MILWAUKEE/SULLIVAN WI
400 PM CDT WED SEP 17 2014

NOTE: "FAIR" INDICATES FEW OR NO CLOUDS BELOW 12,000 FEET WITH NO
SIGNIFICANT WEATHER AND/OR OBSTRUCTIONS TO VISIBILITY.

WIZ001-002-006>008-014>016-023>028-172200-
NORTHWEST WISCONSIN

CITY           SKY/WX    TMP DP  RH WIND       PRES   REMARKS
SUPERIOR ARPT  CLOUDY    49  46  87 NE17      30.03R
ASHLAND        CLOUDY    49  44  83 NE15      30.05R
HAYWARD        PTSUNNY   66  52  60 NE12      29.96R
SIREN          MOSUNNY   71  46  41 CALM      29.95S
RICE LAKE      SUNNY     70  48  45 CALM      29.97S
LADYSMITH      MOSUNNY   68  51  54 CALM      29.97S
EAU CLAIRE     MOSUNNY   69  49  48 CALM      29.95S
MENOMONIE      CLEAR     72  51  47 S3        29.95S
NEW RICHMOND   MOSUNNY   73  49  42 NW5       29.96S
OSCEOLA        PTSUNNY   73  51  46 N7        29.98R
$$

WIZ003>005-009-010-017-018-172200-
NORTH CENTRAL WISCONSIN

CITY           SKY/WX    TMP DP  RH WIND       PRES   REMARKS
WOODRUFF       MOSUNNY   67  47  47 N6        29.95R
RHINELANDER    SUNNY     68  45  43 NW8       29.96S
EAGLE RIVER    CLOUDY    67  43  40 NW8       29.94S
LAND O LAKES   MOSUNNY   62  49  62 N10G17    29.98R
PHILLIPS       PTSUNNY   69  49  49 SW7       29.94S
TOMAHAWK       MOSUNNY   67  46  45 CALM      29.95F
MEDFORD        PTSUNNY   68  49  50 W7        29.96S
MERRILL        PTSUNNY   68  51  53 NW3       29.95S
$$

WIZ029-030-035-036-043>047-172200-
CENTRAL WISCONSIN

CITY           SKY/WX    TMP DP  RH WIND       PRES   REMARKS
WAUSAU         PTSUNNY   67  49  52 CALM      29.95R
MOSINEE        PTSUNNY   70  52  52 W9        29.97S
MARSHFIELD     MOSUNNY   66  51  58 W5        29.96S
STEVENS POINT  MOSUNNY   67  47  49 W6        29.97S
WAUPACA        MOSUNNY   71  47  42 CALM      29.96S
WAUTOMA        PTSUNNY   71  49  45 W6        29.97S
WISC RAPIDS    PTSUNNY   70  47  43 CALM      29.98S
CAMP DOUGLAS   PTSUNNY   68  50  52 NE1       29.97S
$$

WIZ011>013-019>022-031-037>040-048>050-172200-
NORTHEAST WISCONSIN

CITY           SKY/WX    TMP DP  RH WIND       PRES   REMARKS
ANTIGO         PTSUNNY   68  48  49 W7        29.96R
STURGEON BAY   MOSUNNY   68  48  49 W8        29.95S
GREEN BAY      PTSUNNY   71  50  47 SW10      29.94F
MANITOWOC      CLOUDY    68  49  50 W9        29.96S
APPLETON       PTSUNNY   70  46  43 SW6       29.96S
CLINTONVILLE   CLOUDY    70  46  43 W9G17     29.94S
OSHKOSH        PTSUNNY   68  49  50 W9        29.96S
$$

WIZ032>034-041-042-053>061-172200-
SOUTHWEST WISCONSIN

CITY           SKY/WX    TMP DP  RH WIND       PRES   REMARKS
LA CROSSE      SUNNY     71  53  52 S7        29.95S
SPARTA         SUNNY     71  48  44 S5        29.97S
VIROQUA        FAIR      69  47  45 SW6       29.97F
BOSCOBEL       PTSUNNY   73  49  42 S5        29.96F
PRAIRIE DU CHI SUNNY     69  49  48 CALM      29.96S
PLATTEVILLE    FAIR      69  49  48 S6        29.98F
$$

WIZ056-057-062-063-064-067-068-172200-
SOUTH CENTRAL WISCONSIN

CITY           SKY/WX    TMP DP  RH WIND       PRES   REMARKS
BARABOO/DELLS  SUNNY     69  46  42 S6        29.97S
LONE ROCK      SUNNY     73  49  42 CALM      29.96F
WATERTOWN      SUNNY     68  47  46 CALM      29.97S
MADISON        MOSUNNY   68  46  45 SW6       29.98S
MIDDLETON      FAIR      70  45  40 W5        29.98S
MONROE         MOSUNNY   68  48  49 CALM      29.98S
JANESVILLE     MOSUNNY   70  46  43 SW8       29.98S
$$

WIZ051-052-058>065-066-070>072-172200-
SOUTHEAST WISCONSIN

CITY           SKY/WX    TMP DP  RH WIND       PRES   REMARKS
MILWAUKEE      PTSUNNY   65  47  52 SE16      29.98S
WAUKESHA       MOSUNNY   66  45  45 W6        29.99S
MILWAUKEE/TIMM CLOUDY    68  43  40 W5        29.98F
RACINE         SUNNY     65  48  54 SE10      30.00S
BURLINGTON     MOSUNNY   68  46  44 S6        29.98S
KENOSHA        MOSUNNY   68  47  46 S3        29.99S
FOND DU LAC    MOSUNNY   68  48  48 SW8       29.97S
SHEBOYGAN      MOSUNNY   68  47  46 W9        29.97S
WEST BEND      MOSUNNY   68  45  42 NW5       29.98S
JUNEAU         PTSUNNY   67  47  48 SW5       29.98S
$$

LSZ147-162-172200-
LAKE SUPERIOR

STATION/POSITION TIME  TEMP    WIND        PRES    WAVE
                       AIR SEA DIR/SP/G            HT/PER
                 (UTC) (F)     (DEG/KT/KT) (MB)    (FT/S)
W MID LAKE BUOY  2050   44 47   70/ 17/ 21 1018.2R   5/ 6
DEVILS ISLAND    2100   45      70/ 21/ 24 1018.6R
PORT WING        2000   52      40/ 22/ 25 1016.6
SAXON HARBOR     1900   51      50/ 18/ 20 1016.3R
$$

LMZ867-665-643>646-172200-
LAKE MICHIGAN

STATION/POSITION TIME  TEMP    WIND        PRES    WAVE
                       AIR SEA DIR/SP/G            HT/PER
                 (UTC) (F)     (DEG/KT/KT) (MB)    (FT/S)
N MID LAKE BUOY  2050   59 59  220/ 14/ 16 1013.7R   2/ 3
NORTHPORT PIER   2000   66     130/  5/ 10 1013.2S
SISTER BAY       2012          260/  7/  7   N/A
KEWAUNEE LAKESHO 2100   61     270/  4/  9 1013.2F
SHEBOYGAN LAKESH 2100   58 48  170/ 12/ 13 1015.3S
PORT WASHINGTON  2000   64     180/  6/ 10 1015.9
ATWATER BUOY     2100   61     150/ 10/ 12 1016.3R
MILWAUKEE LAKESH 2100   60     140/ 11/ 13   N/A
S MID LAKE BUOY  2050   62 65  190/  4/  4 1016.2F   1/ 4
KENOSHA   LAKESH 2100   63     160/ 12/ 12 1014.9F
$$

TC  - TEMPERATURE IN CELSIUS
VSB - VISIBILITY IN STATUTE MILES
WCI - WIND CHILL INDEX
HX  - HEAT INDEX




USA.gov is the U.S. government's official web portal to all federal, state and local government web resources and services.